Regional Weather Roundup
Issued by NWS Cleveland, OH

Home | Current Version | Previous Version | Graphics & Text | Print | Product List | Glossary On
Versions: 1 2 3 4 5 6 7 8 9 10 11 12 13 14 15 16 17 18 19 20 21 22 23 24 25 26 27 28 29 30 31 32 33 34 35 36 37 38 39 40 41 42 43 44 45 46 47 48 49 50
000
ASUS41 KCLE 290610
RWRCLE
OHIO REGIONAL WEATHER ROUNDUP
NATIONAL WEATHER SERVICE CLEVELAND, OH
200 AM EDT WED JUL 29 2015

NOTE: "FAIR" INDICATES FEW OR NO CLOUDS BELOW 12,000 FEET WITH NO
SIGNIFICANT WEATHER AND/OR OBSTRUCTIONS TO VISIBILITY.

OHZ001>008-015>018-024>027-034-035-043-044-290700-
   NORTHWEST OHIO

CITY           SKY/WX    TMP DP  RH WIND       PRES   REMARKS
DEFIANCE       NOT AVBL
FINDLAY        NOT AVBL
TOLEDO EXPRESS NOT AVBL
TOLEDO EXEC    NOT AVBL
LIMA           CLEAR     73  66  78 SE5       30.00S
$$

OHZ009>014-019>023-028>033-038-089-290700-
   NORTHEAST OHIO

CITY           SKY/WX    TMP DP  RH WIND       PRES   REMARKS
CLE-HOPKINS    PTCLDY    72  61  68 CALM      30.02F
CLE-LAKEFRONT  CLEAR     78  59  51 CALM      29.98F
CUY CO. ARPT   NOT AVBL
LORAIN-ELYRIA  CLEAR     66  62  87 CALM      30.01F
ASHTABULA      CLEAR     65  63  93 CALM      30.03F
AKRON-CANTON   PTCLDY    71  64  78 NE6       30.02F
WOOSTER        CLEAR     64  63  96 CALM      30.02F FOG
MANSFIELD      CLEAR     69  66  90 CALM      30.02F
YOUNGSTOWN     PTCLDY    68  63  84 E6        30.03F
$$

OHZ042-051>053-060>062-070>072-077>081-290700-
  SOUTHWEST OHIO

CITY           SKY/WX    TMP DP  RH WIND       PRES   REMARKS
CINC-COVINGTON CLEAR     74  72  93 S3        29.98F
CINC-LUNKEN    CLEAR     73  73 100 CALM      29.97F FOG
HAMILTON       LGT RAIN  73  71  93 CALM      29.97F
DAYTON         CLEAR     75  71  87 CALM      30.00F
WRIGHT-PAT AFB NOT AVBL
DAYTON GENERAL CLEAR     76  71  85 CALM      29.98F
WILMINGTON     CLEAR     71  69  93 NE3       30.00F FOG
$$

OHZ036-037-039>041-045>050-054>059-063>069-073>076-082>088-290700-
  CENTRAL AND SOUTHEAST OHIO

CITY           SKY/WX    TMP DP  RH WIND       PRES   REMARKS
COLUMBUS       PTCLDY    75  69  81 CALM      29.99F
OSU AIRPORT    CLEAR     73  69  87 CALM      29.99F
BOLTON FIELD   CLEAR     71  70  98 CALM      30.00F FOG
RICKENBACK AFB CLEAR     73  70  90 CALM      29.98S
NEWARK         CLEAR     70  67  90 E3        29.98F FOG
MARION         CLEAR     71  66  84 CALM      30.00F HAZE
LANCASTER      CLEAR     69  67  93 SE3       29.98F FOG
ZANESVILLE     CLEAR     72  69  90 CALM      29.99F FOG
NEW PHILLY     PTCLDY    69  68  96 CALM      30.00F FOG
$$


USA.gov is the U.S. government's official web portal to all federal, state and local government web resources and services.